Simultaneous Nadir Overpasses (SNOs) Predictions

Prediction of SNOs between METOP-B and TERRA Satellite Orbit:

Table of predicted SNOs for the next 14.0 days since TLE Epoch: 4/13/2013
Index Date (METOP-B) Time (METOP-B) Lat,Lon (METOP-B) SZA (METOP-B ) Date (TERRA) Time (TERRA) Lat,Lon (TERRA) SZA (TERRA ) Distance(km) Time Diff (sec)
1 04/16/2013 02:21:17 -81.29, 11.72 106.03 04/16/2013 02:21:37 -81.29, 11.70 106.02 0.38 20
2 04/16/2013 03:11:56 81.30, 179.44 74.02 04/16/2013 03:11:03 81.30, 179.46 73.99 0.47 53
3 04/18/2013 21:55:38 -81.29, 78.33 106.96 04/18/2013 21:55:51 -81.30, 78.27 106.96 1.23 13
4 04/18/2013 22:46:17 81.30,-113.98 73.08 04/18/2013 22:45:17 81.31,-114.01 73.05 0.83 60
5 04/21/2013 17:29:59 -81.29, 144.48 107.93 04/21/2013 17:30:04 -81.30, 144.67 107.91 3.19 5
6 04/
